Location: Ladrillo (historical)
(32.8195°N, 117.2231°W)
Time: 10:01:41
(UTC+00:00)

Courier 1B - Pass Details

Date: 07 March 2021
Orbit: 963 x 1209 km, 28.3° (Epoch: 14 April)

Event Time Altitude Azimuth Distance (km) Brightness Sun altitude
Rises 12:17:07 0° 218° (SW) 3,788 - -24.3°
Reaches altitude 10° 12:20:28 10° 205° (SSW) 2,795 - -23.6°
Exits shadow 12:21:42 14° 197° (SSW) 2,489 9.4 -23.3°
Maximum altitude 12:25:32 23° 156° (SSE) 1,981 9.2 -22.5°
Drops below altitude 10° 12:30:27 10° 106° (ESE) 2,707 10.8 -21.5°
Sets 12:33:38 0° 92° (E) 3,641 12.0 -20.8°
